Tracking 18852 objects as of 23-Nov-2017
HD Live streaming from Space Station
objects crossing your sky now

THAICOM 1

Track THAICOM 1 now!
THAICOM 1 is classified as:


NORAD ID: 22931
Int'l Code: 1993-078B
Perigee: 36,071.0 km
Apogee: 36,134.2 km
Inclination: 6.7 °
Period: 1,451.9 minutes
Semi major axis: 42473 km
RCS: 1 m2 (large)
Launch date: December 18, 1993
Source: Thailand (THAI)
Launch site: FRENCH GUIANA (FRGUI)

12 C-band, 3 Ku-band; Southeast Asia, Korea, Japan, east coast of China.
aabbcc
Your satellite tracking list
Your tracking list is empty




NASA's NSSDC Master Catalog

Two Line Element Set (TLE):
1 22931U 93078B   17325.95163125  .00000092  00000-0  00000+0 0  9994
2 22931   6.7070  53.9236 0007442 177.7119 231.9351  0.99179917 86894
Source of the keplerian elements: AFSPC